Location: *
(49.9853°N, 3.5569°E)
Time: 12:37:16
(UTC+00:00)

H-2A R/B - Pass Details

Date: 22 September 2019
Orbit: 734 x 836 km, 98.3° (Epoch: 16 October)

Event Time Altitude Azimuth Distance (km) Brightness Sun altitude
Exits shadow 18:40:24 10° 127° (SE) 2,293 3.9 -9.7°
Reaches altitude 10° 18:40:29 10° 126° (SE) 2,262 3.9 -9.7°
Maximum altitude 18:44:55 33° 63° (ENE) 1,255 2.7 -10.4°
Drops below altitude 10° 18:49:26 10° 1° (N) 2,325 4.7 -11.1°
Sets 18:51:58 0° 352° (N) 3,273 5.6 -11.5°
